Back to catalog

OPS 4682 DEB

AlivePO
NORAD 19355·DEBRIS·🇺🇸 United States

Launched Apr 3, 1965 from Vandenberg Space Force Base

Loading…

Next Passes (next 24 hours)

TLE

FreshSource: Space-Track

Epoch: Sep 14, 2026, 06:28 UTC

1 19355U 65027AT  26257.26988115  .00000365  00000-0  12108-2 0  9993
2 19355  90.2390 359.4609 0045081 171.4702 216.2983 12.98278654814268

Track OPS 4682 DEB in real time with AllMySat

Download on the App Store